Champaign, IL

11:50 AM CDT on July 21, 2019 (GMT -0500)
Univ Of Illinois-Willard

Weather History for KCMI - May, 2019

Change the Weather History Date:

Thursday, May 9, 2019

  Actual Average Record
Temperature  
Mean Temperature 58 °F 61 °F  
Max Temperature 68 °F 73 °F 89 °F (2004)
Min Temperature 47 °F 49 °F 39 °F (1997)
Degree Days  
Heating Degree Days 7 6  
Month to date heating degree days 47 62  
Since 1 July heating degree days 5810 5726  
Cooling Degree Days 0 2  
Month to date cooling degree days 4 10  
Year to date cooling degree days 7 21  
Growing Degree Days 7 (Base 50)    
Moisture  
Dew Point 60 °F    
Average Humidity 90    
Maximum Humidity 100    
Minimum Humidity 80    
Precipitation  
Precipitation 1.32 in 0.15 in 1.32 in (2019)
Month to date precipitation 1.84 1.43  
Year to date precipitation 13.98 12.04  
Sea Level Pressure  
Sea Level Pressure 29.78 in    
Wind  
Wind Speed 14 mph (WSW)    
Max Wind Speed 20 mph    
Max Gust Speed 28 mph    
Visibility 8 miles    
Events Rain    
T = Trace of Precipitation, MM = Missing Value Source: NWS Daily Summary

Daily Weather History Graph

Daily Weather History Graph

Search for Another Location

Airport or City:

Astronomy

May. 09, 2019 Rise Set
Actual Time 5:44 AM CDT 7:55 PM CDT
Civil Twilight 5:13 AM CDT 8:25 PM CDT
Nautical Twilight 4:37 AM CDT 9:02 PM CDT
Astronomical Twilight 3:56 AM CDT 9:43 PM CDT
Moon 9:38 AM CDT (5/9) No Moon Set
Length of Visible Light 15h 11m
Length of Day
14h 11m
Waxing Crescent, 25% of the Moon is Illuminated
May 9
Waxing Crescent
May 11
First Quarter
May 18
Full
May 26
Last Quarter
Jun 3
New

Hourly Weather History & Observations

Time (CDT) Temp. Dew Point Humidity Pressure Visibility Wind Dir Wind Speed Gust Speed Precip Events Conditions
12:53 AM 66.0 °F 64.0 °F 93% 29.73 in 4.0 mi WSW 16.1 mph 29.9 mph 0.11 in Rain Rain
1:53 AM 64.9 °F 64.9 °F 100% 29.72 in 3.0 mi SW 5.8 mph - 0.11 in Rain Heavy Rain
2:23 AM 64.9 °F 64.9 °F 100% 29.72 in 2.5 mi South 8.1 mph - 0.11 in Rain Heavy Rain
2:42 AM 64.9 °F 64.9 °F 100% 29.70 in 3.0 mi SE 4.6 mph - 0.19 in Rain Rain
2:53 AM 64.9 °F 64.9 °F 100% 29.68 in 4.0 mi ESE 5.8 mph - 0.20 in Rain Light Rain
3:01 AM 64.9 °F 64.9 °F 100% 29.69 in 1.8 mi ESE 5.8 mph - 0.06 in Rain Heavy Rain
3:21 AM 66.0 °F 64.9 °F 96% 29.67 in 3.0 mi South 17.3 mph 25.3 mph 0.19 in Rain Rain
3:33 AM 66.0 °F 64.9 °F 96% 29.67 in 1.8 mi South 15.0 mph - 0.38 in Rain Heavy Rain
3:41 AM 64.9 °F 64.9 °F 100% 29.69 in 0.8 mi WSW 9.2 mph - 0.63 in Rain Heavy Rain
3:46 AM 64.9 °F 64.9 °F 100% 29.69 in 1.0 mi WSW 10.4 mph - 0.71 in Rain Heavy Rain
3:53 AM 64.9 °F 64.9 °F 100% 29.67 in 1.2 mi SW 17.3 mph 25.3 mph 0.80 in Rain Heavy Rain
4:04 AM 64.0 °F 64.0 °F 100% 29.69 in 2.5 mi WSW 15.0 mph 23.0 mph 0.09 in Rain Heavy Rain
4:07 AM 64.0 °F 64.0 °F 100% 29.69 in 3.0 mi WSW 15.0 mph - 0.10 in Rain Heavy Rain
4:53 AM 64.0 °F 63.0 °F 96% 29.69 in 4.0 mi SSW 11.5 mph - 0.22 in Rain Light Rain
5:48 AM 62.6 °F 62.6 °F 100% 29.70 in 10.0 mi SSW 9.2 mph - 0.00 in   Overcast
5:49 AM 62.6 °F 62.6 °F 100% 29.70 in 10.0 mi SSW 9.2 mph - 0.00 in   Overcast
5:53 AM 63.0 °F 63.0 °F 100% 29.69 in 10.0 mi South 10.4 mph - 0.00 in   Overcast
6:02 AM 64.0 °F 63.0 °F 96% 29.70 in 10.0 mi SSW 10.4 mph - N/A   Overcast
6:53 AM 64.0 °F 64.0 °F 100% 29.72 in 10.0 mi SSW 12.7 mph - N/A   Overcast
7:53 AM 66.0 °F 64.0 °F 93% 29.74 in 10.0 mi SW 13.8 mph - N/A   Overcast
8:39 AM 66.0 °F 64.9 °F 96% 29.75 in 10.0 mi SW 17.3 mph 25.3 mph N/A   Overcast
8:53 AM 66.9 °F 64.9 °F 93% 29.74 in 10.0 mi SW 17.3 mph 26.5 mph N/A   Mostly Cloudy
9:53 AM 66.9 °F 64.0 °F 90% 29.75 in 10.0 mi SW 18.4 mph 25.3 mph N/A   Overcast
10:00 AM 66.9 °F 64.0 °F 90% 29.77 in 10.0 mi SW 17.3 mph 25.3 mph N/A   Overcast
10:53 AM 66.9 °F 64.0 °F 90% 29.77 in 10.0 mi SW 16.1 mph - N/A   Overcast
11:53 AM 66.9 °F 63.0 °F 87% 29.79 in 10.0 mi SW 17.3 mph 26.5 mph N/A   Overcast
12:49 PM 66.2 °F 64.4 °F 94% 29.81 in 10.0 mi West 16.1 mph - N/A   Overcast
12:53 PM 66.0 °F 63.0 °F 90% 29.80 in 10.0 mi West 16.1 mph - N/A   Overcast
1:00 PM 64.9 °F 62.1 °F 90% 29.81 in 10.0 mi WNW 15.0 mph - N/A   Overcast
1:53 PM 63.0 °F 60.1 °F 90% 29.82 in 9.0 mi West 15.0 mph - 0.00 in   Overcast
2:53 PM 61.0 °F 57.9 °F 90% 29.83 in 10.0 mi WNW 13.8 mph - 0.00 in   Overcast
3:53 PM 57.9 °F 55.0 °F 90% 29.84 in 10.0 mi West 15.0 mph - 0.00 in   Overcast
4:09 PM 57.0 °F 55.0 °F 93% 29.85 in 10.0 mi WNW 15.0 mph - N/A   Overcast
4:53 PM 55.9 °F 54.0 °F 93% 29.86 in 8.0 mi WNW 12.7 mph - 0.00 in Rain Light Rain
5:34 PM 55.9 °F 53.1 °F 90% 29.87 in 10.0 mi WNW 12.7 mph - 0.00 in   Overcast
5:53 PM 55.9 °F 53.1 °F 90% 29.88 in 10.0 mi WNW 15.0 mph - 0.00 in   Overcast
6:09 PM 55.0 °F 52.0 °F 89% 29.88 in 10.0 mi WNW 13.8 mph - N/A   Overcast
6:35 PM 55.0 °F 51.1 °F 86% 29.89 in 10.0 mi WNW 16.1 mph - 0.00 in   Overcast
6:53 PM 55.0 °F 51.1 °F 86% 29.89 in 10.0 mi WNW 11.5 mph - 0.00 in   Mostly Cloudy
7:53 PM 54.0 °F 48.0 °F 80% 29.91 in 10.0 mi NW 17.3 mph - N/A   Overcast
8:53 PM 52.0 °F 46.0 °F 80% 29.93 in 10.0 mi WNW 15.0 mph - N/A   Overcast
9:53 PM 50.0 °F 44.1 °F 80% 29.97 in 10.0 mi WNW 16.1 mph - N/A   Overcast
10:53 PM 48.9 °F 43.0 °F 80% 29.99 in 10.0 mi WNW 17.3 mph - N/A   Overcast
11:53 PM 48.0 °F 43.0 °F 83% 29.99 in 10.0 mi WNW 13.8 mph - N/A   Overcast